Time,TemperatureF,DewpointF,PressureIn,WindDirection,WindDirectionDegrees,WindSpeedMPH,WindSpeedGustMPH,Humidity,HourlyPrecipIn,Conditions,Clouds,dailyrainin,SoftwareType,DateUTC
2013-02-01 00:07:00,50.0,31.6,28.78,NNE,22,0.0,0.0,49,0.00,,,0.00,open2300-1.11,2013-01-31 22:07:00,
2013-02-01 00:12:00,49.8,31.4,28.78,SW,225,1.1,1.1,49,0.00,,,0.00,open2300-1.11,2013-01-31 22:12:00,
2013-02-01 00:17:00,49.8,31.4,28.79,SW,225,0.0,1.1,49,0.00,,,0.00,open2300-1.11,2013-01-31 22:17:00,
2013-02-01 00:22:00,49.8,32.0,28.78,SW,225,0.0,0.0,50,0.00,,,0.00,open2300-1.11,2013-01-31 22:22:00,
2013-02-01 00:32:00,49.8,32.0,28.79,SW,225,0.0,0.0,50,0.00,,,0.00,open2300-1.11,2013-01-31 22:32:00,
2013-02-01 00:37:00,49.8,32.0,28.78,North,0,1.1,2.9,50,0.00,,,0.00,open2300-1.11,2013-01-31 22:37:00,
2013-02-01 00:42:00,49.8,31.4,28.78,SSW,202,0.0,1.1,49,0.00,,,0.00,open2300-1.11,2013-01-31 22:42:00,
2013-02-01 00:47:00,49.8,32.0,28.78,North,0,0.0,0.0,50,0.00,,,0.00,open2300-1.11,2013-01-31 22:47:00,
2013-02-01 00:57:00,49.6,31.8,28.78,NNE,22,1.1,1.1,50,0.00,,,0.00,open2300-1.11,2013-01-31 22:57:00,
2013-02-01 01:07:00,49.6,31.8,28.78,NNE,22,0.0,0.0,50,0.00,,,0.00,open2300-1.11,2013-01-31 23:07:00,
2013-02-01 01:15:00,49.6,31.8,28.78,NNE,22,2.5,2.5,50,0.00,,,0.00,open2300-1.11,2013-01-31 23:15:00,
2013-02-01 01:22:00,49.3,31.5,28.77,NNE,22,0.0,2.5,50,0.00,,,0.00,open2300-1.11,2013-01-31 23:22:00,
2013-02-01 01:27:00,49.3,31.5,28.77,NE,45,3.6,3.6,50,0.00,,,0.00,open2300-1.11,2013-01-31 23:27:00,
2013-02-01 01:32:00,49.3,31.5,28.77,NE,45,0.0,3.6,50,0.00,,,0.00,open2300-1.11,2013-01-31 23:32:00,
2013-02-01 01:37:00,49.3,30.9,28.77,NNE,22,3.6,3.6,49,0.00,,,0.00,open2300-1.11,2013-01-31 23:37:00,
2013-02-01 01:42:00,49.3,30.9,28.78,NE,45,0.0,3.6,49,0.00,,,0.00,open2300-1.11,2013-01-31 23:42:00,
2013-02-01 01:47:00,49.6,31.3,28.79,NE,45,0.0,0.0,49,0.00,,,0.00,open2300-1.11,2013-01-31 23:47:00,
2013-02-01 01:52:00,49.5,31.1,28.79,North,0,4.7,4.7,49,0.00,,,0.00,open2300-1.11,2013-01-31 23:52:00,
2013-02-01 01:57:00,49.3,30.9,28.78,NNE,22,1.6,4.7,49,0.00,,,0.00,open2300-1.11,2013-01-31 23:57:00,
2013-02-01 02:07:00,49.5,31.1,28.77,NNE,22,1.6,4.2,49,0.00,,,0.00,open2300-1.11,2013-02-01 00:07:00,
2013-02-01 02:12:00,49.3,30.9,28.77,NE,45,2.0,2.0,49,0.00,,,0.00,open2300-1.11,2013-02-01 00:12:00,
2013-02-01 02:17:00,49.3,30.9,28.77,NNE,22,3.1,3.1,49,0.00,,,0.00,open2300-1.11,2013-02-01 00:17:00,
2013-02-01 02:22:00,49.3,31.5,28.77,NE,45,1.6,3.1,50,0.00,,,0.00,open2300-1.11,2013-02-01 00:22:00,
2013-02-01 02:27:00,49.3,31.5,28.76,NE,45,0.0,1.6,50,0.00,,,0.00,open2300-1.11,2013-02-01 00:27:00,
2013-02-01 02:32:00,49.3,31.5,28.76,NNE,22,5.4,5.4,50,0.00,,,0.00,open2300-1.11,2013-02-01 00:32:00,
2013-02-01 02:37:00,49.1,31.3,28.76,NNE,22,2.5,5.4,50,0.00,,,0.00,open2300-1.11,2013-02-01 00:37:00,
2013-02-01 02:45:00,49.1,31.3,28.76,NNE,22,0.7,3.1,50,0.00,,,0.00,open2300-1.11,2013-02-01 00:45:00,
2013-02-01 02:52:00,49.1,31.3,28.76,North,0,0.0,3.6,50,0.00,,,0.00,open2300-1.11,2013-02-01 00:52:00,
2013-02-01 03:02:00,49.1,31.3,28.76,NNE,22,0.0,0.0,50,0.00,,,0.00,open2300-1.11,2013-02-01 01:02:00,
2013-02-01 03:07:00,49.1,31.3,28.76,NE,45,3.4,3.4,50,0.00,,,0.00,open2300-1.11,2013-02-01 01:07:00,
2013-02-01 03:12:00,48.9,31.1,28.76,SSW,202,0.0,3.4,50,0.00,,,0.00,open2300-1.11,2013-02-01 01:12:00,
2013-02-01 03:17:00,48.9,31.1,28.77,SSW,202,1.3,1.3,50,0.00,,,0.00,open2300-1.11,2013-02-01 01:17:00,
2013-02-01 03:27:00,48.6,31.2,28.76,SW,225,0.0,0.0,51,0.00,,,0.00,open2300-1.11,2013-02-01 01:27:00,
2013-02-01 03:37:00,48.4,31.0,28.77,SW,225,0.0,0.0,51,0.00,,,0.00,open2300-1.11,2013-02-01 01:37:00,
2013-02-01 03:42:00,48.4,31.0,28.77,SW,225,0.0,0.0,51,0.00,,,0.00,open2300-1.11,2013-02-01 01:42:00,
2013-02-01 03:52:00,48.0,30.7,28.77,SW,225,0.0,0.0,51,0.00,,,0.00,open2300-1.11,2013-02-01 01:52:00,
2013-02-01 03:57:00,48.0,30.7,28.77,SW,225,0.0,0.0,51,0.00,,,0.00,open2300-1.11,2013-02-01 01:57:00,
2013-02-01 04:05:00,48.0,30.7,28.77,SW,225,0.0,0.0,51,0.00,,,0.00,open2300-1.11,2013-02-01 02:05:00,
2013-02-01 04:12:00,47.8,31.0,28.77,SW,225,0.0,0.0,52,0.00,,,0.00,open2300-1.11,2013-02-01 02:12:00,
2013-02-01 04:17:00,47.8,30.5,28.77,North,0,0.0,0.0,51,0.00,,,0.00,open2300-1.11,2013-02-01 02:17:00,
2013-02-01 04:22:00,47.8,30.5,28.77,WNW,292,0.0,0.0,51,0.00,,,0.00,open2300-1.11,2013-02-01 02:22:00,
2013-02-01 04:27:00,47.8,31.0,28.77,WNW,292,0.0,0.0,52,0.00,,,0.00,open2300-1.11,2013-02-01 02:27:00,
2013-02-01 04:37:00,47.7,30.8,28.79,SW,225,0.0,1.3,52,0.00,,,0.00,open2300-1.11,2013-02-01 02:37:00,
2013-02-01 04:42:00,47.5,30.6,28.78,SW,225,0.0,0.0,52,0.00,,,0.00,open2300-1.11,2013-02-01 02:42:00,
2013-02-01 04:52:00,47.3,30.9,28.78,SW,225,0.0,0.0,53,0.00,,,0.00,open2300-1.11,2013-02-01 02:52:00,
2013-02-01 04:57:00,47.1,30.8,28.79,SW,225,0.0,0.0,53,0.00,,,0.00,open2300-1.11,2013-02-01 02:57:00,
2013-02-01 05:02:00,47.1,30.8,28.79,SW,225,0.0,0.0,53,0.00,,,0.00,open2300-1.11,2013-02-01 03:02:00,
2013-02-01 05:07:00,47.1,31.2,28.79,SW,225,0.0,0.0,54,0.00,,,0.00,open2300-1.11,2013-02-01 03:07:00,
2013-02-01 05:12:00,46.9,31.1,28.79,SW,225,0.0,0.0,54,0.00,,,0.00,open2300-1.11,2013-02-01 03:12:00,
2013-02-01 05:22:00,46.8,31.4,28.80,SW,225,0.0,0.0,55,0.00,,,0.00,open2300-1.11,2013-02-01 03:22:00,
2013-02-01 05:27:00,46.8,31.4,28.79,SW,225,0.0,0.0,55,0.00,,,0.00,open2300-1.11,2013-02-01 03:27:00,
2013-02-01 05:32:00,46.6,31.2,28.79,SW,225,0.0,0.0,55,0.00,,,0.00,open2300-1.11,2013-02-01 03:32:00,
2013-02-01 05:42:00,46.6,31.6,28.79,SW,225,0.0,0.0,56,0.00,,,0.00,open2300-1.11,2013-02-01 03:42:00,
2013-02-01 05:47:00,46.4,31.5,28.79,SW,225,0.0,0.0,56,0.00,,,0.00,open2300-1.11,2013-02-01 03:47:00,
2013-02-01 05:52:00,46.2,31.3,28.79,SW,225,0.0,0.0,56,0.00,,,0.00,open2300-1.11,2013-02-01 03:52:00,
2013-02-01 06:02:00,46.2,31.3,28.79,SW,225,0.0,0.0,56,0.00,,,0.00,open2300-1.11,2013-02-01 04:02:00,
2013-02-01 06:07:00,46.0,31.1,28.79,SW,225,0.0,0.0,56,0.00,,,0.00,open2300-1.11,2013-02-01 04:07:00,
2013-02-01 06:12:00,46.0,31.6,28.80,SW,225,0.0,0.0,57,0.00,,,0.00,open2300-1.11,2013-02-01 04:12:00,
2013-02-01 06:17:00,46.0,31.6,28.80,SW,225,0.0,0.0,57,0.00,,,0.00,open2300-1.11,2013-02-01 04:17:00,
2013-02-01 06:23:00,45.7,31.3,28.80,SW,225,0.0,0.0,57,0.00,,,0.00,open2300-1.11,2013-02-01 04:23:00,
2013-02-01 06:32:00,45.7,31.3,28.79,SW,225,0.0,0.0,57,0.00,,,0.00,open2300-1.11,2013-02-01 04:32:00,
2013-02-01 06:37:00,45.7,31.7,28.80,SW,225,0.0,0.0,58,0.00,,,0.00,open2300-1.11,2013-02-01 04:37:00,
2013-02-01 06:42:00,45.7,31.7,28.80,SW,225,0.0,0.0,58,0.00,,,0.00,open2300-1.11,2013-02-01 04:42:00,
2013-02-01 06:47:00,45.5,31.5,28.80,SW,225,0.0,0.0,58,0.00,,,0.00,open2300-1.11,2013-02-01 04:47:00,
2013-02-01 06:52:00,45.5,31.5,28.79,SW,225,0.0,0.0,58,0.00,,,0.00,open2300-1.11,2013-02-01 04:52:00,
2013-02-01 06:57:00,45.5,31.5,28.79,SW,225,0.0,0.0,58,0.00,,,0.00,open2300-1.11,2013-02-01 04:57:00,
2013-02-01 07:02:00,45.5,31.5,28.79,SW,225,0.0,0.0,58,0.00,,,0.00,open2300-1.11,2013-02-01 05:02:00,
2013-02-01 07:07:00,45.3,31.4,28.79,SW,225,0.0,0.0,58,0.00,,,0.00,open2300-1.11,2013-02-01 05:07:00,
2013-02-01 07:12:00,45.3,31.8,28.79,SW,225,0.0,0.0,59,0.00,,,0.00,open2300-1.11,2013-02-01 05:12:00,
2013-02-01 07:17:00,45.3,31.8,28.79,SW,225,0.0,0.0,59,0.00,,,0.00,open2300-1.11,2013-02-01 05:17:00,
2013-02-01 07:22:00,45.1,31.7,28.79,SW,225,0.0,0.0,59,0.00,,,0.00,open2300-1.11,2013-02-01 05:22:00,
2013-02-01 07:27:00,45.1,31.7,28.79,SW,225,0.0,0.0,59,0.00,,,0.00,open2300-1.11,2013-02-01 05:27:00,
2013-02-01 07:32:00,45.1,32.1,28.79,SW,225,0.0,0.0,60,0.00,,,0.00,open2300-1.11,2013-02-01 05:32:00,
2013-02-01 07:38:00,45.1,32.1,28.79,SW,225,0.0,0.0,60,0.00,,,0.00,open2300-1.11,2013-02-01 05:38:00,
2013-02-01 07:47:00,45.1,32.1,28.79,SW,225,0.0,0.0,60,0.00,,,0.00,open2300-1.11,2013-02-01 05:47:00,
2013-02-01 07:52:00,45.1,31.7,28.80,SW,225,0.0,0.0,59,0.00,,,0.00,open2300-1.11,2013-02-01 05:52:00,
2013-02-01 07:57:00,45.1,31.7,28.80,SW,225,0.0,0.0,59,0.00,,,0.00,open2300-1.11,2013-02-01 05:57:00,
2013-02-01 08:02:00,45.1,31.7,28.80,SW,225,0.0,0.0,59,0.00,,,0.00,open2300-1.11,2013-02-01 06:02:00,
2013-02-01 08:07:00,45.1,32.1,28.80,SW,225,0.0,0.0,60,0.00,,,0.00,open2300-1.11,2013-02-01 06:07:00,
2013-02-01 08:12:00,45.0,31.5,28.79,SW,225,0.0,0.0,59,0.00,,,0.00,open2300-1.11,2013-02-01 06:12:00,
2013-02-01 08:22:00,45.0,32.0,28.80,SW,225,0.0,0.0,60,0.00,,,0.00,open2300-1.11,2013-02-01 06:22:00,
2013-02-01 08:27:00,45.0,32.0,28.80,SW,225,0.0,0.0,60,0.00,,,0.00,open2300-1.11,2013-02-01 06:27:00,
2013-02-01 08:32:00,45.1,32.1,28.80,SW,225,0.0,0.0,60,0.00,,,0.00,open2300-1.11,2013-02-01 06:32:00,
2013-02-01 08:37:00,45.1,32.1,28.80,SW,225,0.0,0.0,60,0.00,,,0.00,open2300-1.11,2013-02-01 06:37:00,
2013-02-01 08:42:00,45.1,32.1,28.80,SW,225,0.0,0.0,60,0.00,,,0.00,open2300-1.11,2013-02-01 06:42:00,
2013-02-01 08:49:00,45.1,32.1,28.81,SW,225,0.0,0.0,60,0.00,,,0.00,open2300-1.11,2013-02-01 06:49:00,
2013-02-01 08:57:00,45.3,32.3,28.80,SW,225,0.0,0.0,60,0.00,,,0.00,open2300-1.11,2013-02-01 06:57:00,
2013-02-01 09:07:00,45.7,32.2,28.80,SW,225,0.0,0.0,59,0.00,,,0.00,open2300-1.11,2013-02-01 07:07:00,
2013-02-01 09:12:00,45.7,32.2,28.80,SW,225,0.0,0.0,59,0.00,,,0.00,open2300-1.11,2013-02-01 07:12:00,
2013-02-01 09:17:00,46.0,32.5,28.80,SW,225,0.0,0.0,59,0.00,,,0.00,open2300-1.11,2013-02-01 07:17:00,
2013-02-01 09:22:00,46.0,32.0,28.80,SW,225,0.0,0.0,58,0.00,,,0.00,open2300-1.11,2013-02-01 07:22:00,
2013-02-01 09:27:00,46.2,32.2,28.80,SW,225,0.0,0.0,58,0.00,,,0.00,open2300-1.11,2013-02-01 07:27:00,
2013-02-01 09:37:00,46.8,32.2,28.80,SW,225,0.0,0.0,57,0.00,,,0.00,open2300-1.11,2013-02-01 07:37:00,
2013-02-01 09:42:00,46.9,32.4,28.80,SW,225,0.0,0.0,57,0.00,,,0.00,open2300-1.11,2013-02-01 07:42:00,
2013-02-01 09:52:00,47.5,32.5,28.80,SW,225,0.0,0.0,56,0.00,,,0.00,open2300-1.11,2013-02-01 07:52:00,
2013-02-01 09:57:00,47.8,32.8,28.80,SW,225,0.0,0.0,56,0.00,,,0.00,open2300-1.11,2013-02-01 07:57:00,
2013-02-01 10:02:00,48.0,32.5,28.80,SW,225,0.0,0.0,55,0.00,,,0.00,open2300-1.11,2013-02-01 08:02:00,
2013-02-01 10:08:00,48.2,32.2,28.80,SW,225,0.0,0.0,54,0.00,,,0.00,open2300-1.11,2013-02-01 08:08:00,
2013-02-01 10:13:00,48.4,32.0,28.80,SW,225,0.0,0.0,53,0.00,,,0.00,open2300-1.11,2013-02-01 08:13:00,
2013-02-01 10:22:00,48.7,31.8,28.80,SW,225,0.0,0.0,52,0.00,,,0.00,open2300-1.11,2013-02-01 08:22:00,
2013-02-01 10:27:00,49.1,32.2,28.80,SW,225,0.0,0.0,52,0.00,,,0.00,open2300-1.11,2013-02-01 08:27:00,
2013-02-01 10:32:00,49.5,32.1,28.80,SW,225,0.0,0.0,51,0.00,,,0.00,open2300-1.11,2013-02-01 08:32:00,
2013-02-01 10:37:00,49.6,32.3,28.80,SW,225,0.0,0.0,51,0.00,,,0.00,open2300-1.11,2013-02-01 08:37:00,
2013-02-01 10:42:00,49.8,32.0,28.80,WSW,247,0.0,0.0,50,0.00,,,0.00,open2300-1.11,2013-02-01 08:42:00,
2013-02-01 10:47:00,49.8,32.0,28.80,SW,225,0.0,1.6,50,0.00,,,0.00,open2300-1.11,2013-02-01 08:47:00,
2013-02-01 10:57:00,50.4,32.5,28.80,SW,225,0.0,0.0,50,0.00,,,0.00,open2300-1.11,2013-02-01 08:57:00,
2013-02-01 11:02:00,50.7,32.3,28.80,SW,225,0.0,0.0,49,0.00,,,0.00,open2300-1.11,2013-02-01 09:02:00,
2013-02-01 11:07:00,50.9,31.9,28.79,SW,225,0.0,1.1,48,0.00,,,0.00,open2300-1.11,2013-02-01 09:07:00,
2013-02-01 11:12:00,51.1,32.0,28.79,SW,225,0.0,0.0,48,0.00,,,0.00,open2300-1.11,2013-02-01 09:12:00,
2013-02-01 11:22:00,51.8,32.1,28.79,SW,225,0.0,2.5,47,0.00,,,0.00,open2300-1.11,2013-02-01 09:22:00,
2013-02-01 11:32:00,52.3,32.0,28.79,SW,225,0.0,0.0,46,0.00,,,0.00,open2300-1.11,2013-02-01 09:32:00,
2013-02-01 11:37:00,52.5,32.2,28.80,SW,225,0.0,1.6,46,0.00,,,0.00,open2300-1.11,2013-02-01 09:37:00,
2013-02-01 11:47:00,52.5,31.7,28.79,West,270,0.0,3.8,45,0.00,,,0.00,open2300-1.11,2013-02-01 09:47:00,
2013-02-01 11:52:00,52.5,31.7,28.79,WSW,247,0.0,0.0,45,0.00,,,0.00,open2300-1.11,2013-02-01 09:52:00,
2013-02-01 11:57:00,52.7,31.8,28.79,SW,225,0.0,0.0,45,0.00,,,0.00,open2300-1.11,2013-02-01 09:57:00,
2013-02-01 12:08:00,53.2,32.3,28.79,SW,225,0.0,0.0,45,0.00,,,0.00,open2300-1.11,2013-02-01 10:08:00,
2013-02-01 12:17:00,53.4,32.5,28.79,SW,225,0.0,0.0,45,0.00,,,0.00,open2300-1.11,2013-02-01 10:17:00,
2013-02-01 12:22:00,53.2,32.3,28.78,SW,225,3.1,3.1,45,0.00,,,0.00,open2300-1.11,2013-02-01 10:22:00,
2013-02-01 12:27:00,52.9,32.0,28.78,SW,225,0.0,3.1,45,0.00,,,0.00,open2300-1.11,2013-02-01 10:27:00,
2013-02-01 12:32:00,52.9,32.0,28.78,SW,225,0.0,0.0,45,0.00,,,0.00,open2300-1.11,2013-02-01 10:32:00,
2013-02-01 12:37:00,52.9,32.0,28.78,SW,225,0.0,0.0,45,0.00,,,0.00,open2300-1.11,2013-02-01 10:37:00,
2013-02-01 12:42:00,52.9,32.5,28.77,SW,225,0.0,0.0,46,0.00,,,0.00,open2300-1.11,2013-02-01 10:42:00,
2013-02-01 12:47:00,52.9,32.5,28.77,SSW,202,0.0,0.0,46,0.00,,,0.00,open2300-1.11,2013-02-01 10:47:00,
2013-02-01 12:52:00,52.9,32.5,28.77,SW,225,0.0,3.6,46,0.00,,,0.00,open2300-1.11,2013-02-01 10:52:00,
2013-02-01 12:57:00,52.9,32.5,28.77,SW,225,2.0,2.0,46,0.00,,,0.00,open2300-1.11,2013-02-01 10:57:00,
2013-02-01 13:02:00,52.9,33.1,28.77,SW,225,0.0,6.0,47,0.00,,,0.00,open2300-1.11,2013-02-01 11:02:00,
2013-02-01 13:12:00,53.1,33.8,28.77,SW,225,0.0,0.0,48,0.00,,,0.00,open2300-1.11,2013-02-01 11:12:00,
2013-02-01 13:17:00,53.2,34.5,28.77,SW,225,0.0,3.4,49,0.00,,,0.00,open2300-1.11,2013-02-01 11:17:00,
2013-02-01 13:22:00,53.2,34.5,28.76,SSW,202,3.8,3.8,49,0.00,,,0.00,open2300-1.11,2013-02-01 11:22:00,
2013-02-01 13:27:00,53.4,34.7,28.76,WSW,247,0.0,3.8,49,0.00,,,0.00,open2300-1.11,2013-02-01 11:27:00,
2013-02-01 13:32:00,53.4,34.7,28.76,SW,225,0.0,0.9,49,0.00,,,0.00,open2300-1.11,2013-02-01 11:32:00,
2013-02-01 13:42:00,53.6,34.9,28.75,SW,225,0.0,4.2,49,0.00,,,0.00,open2300-1.11,2013-02-01 11:42:00,
2013-02-01 13:53:00,53.8,34.5,28.74,SSW,202,0.0,1.6,48,0.00,,,0.00,open2300-1.11,2013-02-01 11:53:00,
2013-02-01 14:02:00,53.8,34.5,28.74,SSW,202,0.0,0.0,48,0.00,,,0.00,open2300-1.11,2013-02-01 12:02:00,
2013-02-01 14:07:00,53.8,34.5,28.74,WSW,247,0.0,0.0,48,0.00,,,0.00,open2300-1.11,2013-02-01 12:07:00,
2013-02-01 14:12:00,53.8,34.5,28.74,SW,225,0.0,0.0,48,0.00,,,0.00,open2300-1.11,2013-02-01 12:12:00,
2013-02-01 14:17:00,54.0,34.1,28.74,SW,225,0.0,0.0,47,0.00,,,0.00,open2300-1.11,2013-02-01 12:17:00,
2013-02-01 14:27:00,54.0,34.1,28.74,WSW,247,0.0,0.0,47,0.00,,,0.00,open2300-1.11,2013-02-01 12:27:00,
2013-02-01 14:32:00,54.0,34.1,28.74,SW,225,0.0,0.0,47,0.00,,,0.00,open2300-1.11,2013-02-01 12:32:00,
2013-02-01 14:37:00,54.0,34.1,28.74,SW,225,4.7,4.7,47,0.00,,,0.00,open2300-1.11,2013-02-01 12:37:00,
2013-02-01 14:47:00,54.0,35.2,28.73,SW,225,0.0,0.0,49,0.00,,,0.00,open2300-1.11,2013-02-01 12:47:00,
2013-02-01 14:52:00,54.1,35.3,28.73,SW,225,0.0,0.0,49,0.00,,,0.00,open2300-1.11,2013-02-01 12:52:00,
2013-02-01 14:57:00,54.0,35.2,28.73,SW,225,0.0,0.0,49,0.00,,,0.00,open2300-1.11,2013-02-01 12:57:00,
2013-02-01 15:02:00,54.1,35.3,28.73,SW,225,0.0,0.0,49,0.00,,,0.00,open2300-1.11,2013-02-01 13:02:00,
2013-02-01 15:07:00,54.1,35.3,28.73,SW,225,0.0,0.0,49,0.00,,,0.00,open2300-1.11,2013-02-01 13:07:00,
2013-02-01 15:12:00,54.1,35.3,28.73,SW,225,0.0,2.7,49,0.00,,,0.00,open2300-1.11,2013-02-01 13:12:00,
2013-02-01 15:18:00,54.1,35.3,28.72,SW,225,1.6,3.4,49,0.00,,,0.00,open2300-1.11,2013-02-01 13:18:00,
2013-02-01 15:27:00,54.0,35.2,28.72,SW,225,0.0,1.1,49,0.00,,,0.00,open2300-1.11,2013-02-01 13:27:00,
2013-02-01 15:32:00,54.1,34.8,28.72,SW,225,0.0,0.0,48,0.00,,,0.00,open2300-1.11,2013-02-01 13:32:00,
2013-02-01 15:42:00,54.1,35.9,28.72,SW,225,1.8,1.8,50,0.00,,,0.00,open2300-1.11,2013-02-01 13:42:00,
2013-02-01 15:47:00,54.1,35.3,28.72,SSW,202,5.4,5.4,49,0.00,,,0.00,open2300-1.11,2013-02-01 13:47:00,
2013-02-01 15:52:00,54.1,35.9,28.72,SW,225,0.0,5.4,50,0.00,,,0.00,open2300-1.11,2013-02-01 13:52:00,
2013-02-01 16:02:00,54.3,36.1,28.72,SW,225,2.5,2.5,50,0.00,,,0.00,open2300-1.11,2013-02-01 14:02:00,
2013-02-01 16:07:00,54.3,36.1,28.72,SW,225,0.0,2.5,50,0.00,,,0.00,open2300-1.11,2013-02-01 14:07:00,
2013-02-01 16:12:00,54.3,36.5,28.71,SW,225,0.0,0.0,51,0.00,,,0.00,open2300-1.11,2013-02-01 14:12:00,
2013-02-01 16:17:00,54.3,36.5,28.71,WSW,247,0.0,0.0,51,0.00,,,0.00,open2300-1.11,2013-02-01 14:17:00,
2013-02-01 16:22:00,54.3,37.0,28.70,WSW,247,0.0,0.0,52,0.00,,,0.00,open2300-1.11,2013-02-01 14:22:00,
2013-02-01 16:29:00,54.3,37.0,28.70,SSW,202,0.0,0.0,52,0.00,,,0.00,open2300-1.11,2013-02-01 14:29:00,
2013-02-01 16:37:00,54.3,37.0,28.70,SW,225,0.0,3.4,52,0.00,,,0.00,open2300-1.11,2013-02-01 14:37:00,
2013-02-01 16:42:00,54.3,37.0,28.69,SW,225,0.0,0.0,52,0.00,,,0.00,open2300-1.11,2013-02-01 14:42:00,
2013-02-01 16:47:00,54.3,37.5,28.69,SW,225,0.0,0.0,53,0.00,,,0.00,open2300-1.11,2013-02-01 14:47:00,
2013-02-01 16:57:00,54.7,37.8,28.70,SW,225,0.0,0.0,53,0.00,,,0.00,open2300-1.11,2013-02-01 14:57:00,
2013-02-01 17:07:00,55.2,38.3,28.70,SW,225,0.0,0.0,53,0.00,,,0.00,open2300-1.11,2013-02-01 15:07:00,
2013-02-01 17:17:00,55.2,38.3,28.70,WSW,247,0.0,0.0,53,0.00,,,0.00,open2300-1.11,2013-02-01 15:17:00,
2013-02-01 17:22:00,54.9,38.0,28.69,WSW,247,0.0,0.0,53,0.00,,,0.00,open2300-1.11,2013-02-01 15:22:00,
2013-02-01 17:29:00,54.5,38.1,28.69,WSW,247,0.0,0.0,54,0.00,,,0.00,open2300-1.11,2013-02-01 15:29:00,
2013-02-01 17:37:00,53.8,37.5,28.70,WSW,247,0.0,0.0,54,0.00,,,0.00,open2300-1.11,2013-02-01 15:37:00,
2013-02-01 17:42:00,53.4,37.6,28.70,WSW,247,0.0,0.0,55,0.00,,,0.00,open2300-1.11,2013-02-01 15:42:00,
2013-02-01 17:47:00,53.2,37.9,28.69,SW,225,0.0,0.0,56,0.00,,,0.00,open2300-1.11,2013-02-01 15:47:00,
2013-02-01 17:52:00,53.1,37.7,28.70,SW,225,0.0,0.0,56,0.00,,,0.00,open2300-1.11,2013-02-01 15:52:00,
2013-02-01 17:57:00,52.9,38.0,28.69,SW,225,0.0,0.0,57,0.00,,,0.00,open2300-1.11,2013-02-01 15:57:00,
2013-02-01 18:07:00,52.3,37.5,28.69,SW,225,0.0,0.0,57,0.00,,,0.00,open2300-1.11,2013-02-01 16:07:00,
2013-02-01 18:12:00,52.3,37.9,28.69,SW,225,0.0,0.0,58,0.00,,,0.00,open2300-1.11,2013-02-01 16:12:00,
2013-02-01 18:17:00,52.0,37.6,28.69,SW,225,0.0,0.0,58,0.00,,,0.00,open2300-1.11,2013-02-01 16:17:00,
2013-02-01 18:22:00,52.0,38.0,28.69,SW,225,0.0,0.0,59,0.00,,,0.00,open2300-1.11,2013-02-01 16:22:00,
2013-02-01 18:27:00,51.8,37.8,28.69,SW,225,0.0,0.0,59,0.00,,,0.00,open2300-1.11,2013-02-01 16:27:00,
2013-02-01 18:33:00,51.6,37.7,28.70,SW,225,0.0,0.0,59,0.00,,,0.00,open2300-1.11,2013-02-01 16:33:00,
2013-02-01 18:42:00,51.4,38.0,28.70,SW,225,0.0,0.0,60,0.00,,,0.00,open2300-1.11,2013-02-01 16:42:00,
2013-02-01 18:47:00,51.3,38.2,28.69,SW,225,0.0,0.0,61,0.00,,,0.00,open2300-1.11,2013-02-01 16:47:00,
2013-02-01 18:52:00,51.3,38.2,28.70,SW,225,0.0,0.0,61,0.00,,,0.00,open2300-1.11,2013-02-01 16:52:00,
2013-02-01 18:57:00,51.1,38.0,28.70,SW,225,0.0,0.0,61,0.00,,,0.00,open2300-1.11,2013-02-01 16:57:00,
2013-02-01 19:02:00,50.9,37.9,28.69,SW,225,0.0,0.0,61,0.00,,,0.00,open2300-1.11,2013-02-01 17:02:00,
2013-02-01 19:12:00,50.9,38.3,28.69,SW,225,0.0,0.0,62,0.00,,,0.00,open2300-1.11,2013-02-01 17:12:00,
2013-02-01 19:17:00,50.7,38.5,28.70,SW,225,0.0,0.0,63,0.00,,,0.00,open2300-1.11,2013-02-01 17:17:00,
2013-02-01 19:22:00,50.7,38.9,28.70,SW,225,0.0,0.0,64,0.00,,,0.00,open2300-1.11,2013-02-01 17:22:00,
2013-02-01 19:32:00,50.7,39.3,28.69,SW,225,0.0,0.0,65,0.00,,,0.00,open2300-1.11,2013-02-01 17:32:00,
2013-02-01 19:37:00,50.7,39.7,28.69,SW,225,0.0,0.0,66,0.00,,,0.00,open2300-1.11,2013-02-01 17:37:00,
2013-02-01 19:47:00,50.7,39.7,28.69,SW,225,0.0,0.0,66,0.00,,,0.00,open2300-1.11,2013-02-01 17:47:00,
2013-02-01 19:52:00,50.7,39.7,28.69,SW,225,0.0,0.0,66,0.00,,,0.00,open2300-1.11,2013-02-01 17:52:00,
2013-02-01 20:02:00,50.5,39.6,28.69,SW,225,0.0,0.0,66,0.00,,,0.00,open2300-1.11,2013-02-01 18:02:00,
2013-02-01 20:07:00,50.5,39.6,28.69,SW,225,0.0,0.0,66,0.00,,,0.00,open2300-1.11,2013-02-01 18:07:00,
2013-02-01 20:17:00,50.5,39.2,28.69,SW,225,0.0,0.0,65,0.00,,,0.00,open2300-1.11,2013-02-01 18:17:00,
2013-02-01 20:22:00,50.5,39.2,28.68,SW,225,0.0,0.0,65,0.00,,,0.00,open2300-1.11,2013-02-01 18:22:00,
2013-02-01 20:27:00,50.5,39.2,28.68,SW,225,0.0,0.0,65,0.00,,,0.00,open2300-1.11,2013-02-01 18:27:00,
2013-02-01 20:32:00,50.5,38.8,28.68,SW,225,0.0,0.0,64,0.00,,,0.00,open2300-1.11,2013-02-01 18:32:00,
2013-02-01 20:39:00,50.5,38.8,28.67,SW,225,0.0,0.0,64,0.00,,,0.00,open2300-1.11,2013-02-01 18:39:00,
2013-02-01 20:47:00,50.7,38.9,28.67,SW,225,0.0,0.0,64,0.00,,,0.00,open2300-1.11,2013-02-01 18:47:00,
2013-02-01 20:52:00,50.7,38.5,28.67,WSW,247,0.0,0.0,63,0.00,,,0.00,open2300-1.11,2013-02-01 18:52:00,
2013-02-01 20:57:00,50.7,38.5,28.67,WSW,247,0.0,0.0,63,0.00,,,0.00,open2300-1.11,2013-02-01 18:57:00,
2013-02-01 21:02:00,50.7,38.5,28.67,WSW,247,0.0,0.0,63,0.00,,,0.00,open2300-1.11,2013-02-01 19:02:00,
2013-02-01 21:07:00,50.7,38.5,28.67,WSW,247,0.0,0.0,63,0.00,,,0.00,open2300-1.11,2013-02-01 19:07:00,
2013-02-01 21:12:00,50.7,38.5,28.67,SW,225,0.0,0.0,63,0.00,,,0.00,open2300-1.11,2013-02-01 19:12:00,
2013-02-01 21:17:00,50.7,38.9,28.67,SW,225,0.0,0.0,64,0.00,,,0.00,open2300-1.11,2013-02-01 19:17:00,
2013-02-01 21:27:00,50.7,38.9,28.67,SW,225,0.0,0.0,64,0.00,,,0.00,open2300-1.11,2013-02-01 19:27:00,
2013-02-01 21:32:00,50.5,38.8,28.67,SW,225,0.0,0.0,64,0.00,,,0.00,open2300-1.11,2013-02-01 19:32:00,
2013-02-01 21:37:00,50.5,38.8,28.67,SW,225,0.0,0.0,64,0.00,,,0.00,open2300-1.11,2013-02-01 19:37:00,
2013-02-01 21:42:00,50.5,38.8,28.67,SW,225,0.0,0.0,64,0.00,,,0.00,open2300-1.11,2013-02-01 19:42:00,
2013-02-01 21:47:00,50.4,38.6,28.67,SW,225,0.0,0.0,64,0.00,,,0.00,open2300-1.11,2013-02-01 19:47:00,
2013-02-01 21:52:00,50.4,38.6,28.67,SW,225,0.0,0.0,64,0.00,,,0.00,open2300-1.11,2013-02-01 19:52:00,
2013-02-01 21:57:00,50.4,38.6,28.67,SW,225,0.0,0.0,64,0.00,,,0.00,open2300-1.11,2013-02-01 19:57:00,
2013-02-01 22:02:00,50.2,38.4,28.67,SW,225,0.0,0.0,64,0.00,,,0.00,open2300-1.11,2013-02-01 20:02:00,
2013-02-01 22:12:00,50.2,38.8,28.67,SW,225,0.0,0.0,65,0.00,,,0.00,open2300-1.11,2013-02-01 20:12:00,
2013-02-01 22:17:00,50.2,38.8,28.67,SW,225,0.0,0.0,65,0.00,,,0.00,open2300-1.11,2013-02-01 20:17:00,
2013-02-01 22:27:00,50.2,38.8,28.67,SW,225,0.0,0.0,65,0.00,,,0.00,open2300-1.11,2013-02-01 20:27:00,
2013-02-01 22:32:00,49.8,38.5,28.66,SW,225,0.0,0.0,65,0.00,,,0.00,open2300-1.11,2013-02-01 20:32:00,
2013-02-01 22:42:00,49.8,38.5,28.66,SW,225,0.0,0.0,65,0.00,,,0.00,open2300-1.11,2013-02-01 20:42:00,
2013-02-01 22:47:00,49.8,38.5,28.66,SW,225,0.0,0.0,65,0.00,,,0.00,open2300-1.11,2013-02-01 20:47:00,
2013-02-01 22:57:00,49.8,38.5,28.66,SW,225,0.0,0.0,65,0.00,,,0.00,open2300-1.11,2013-02-01 20:57:00,
2013-02-01 23:02:00,49.6,38.3,28.66,SW,225,0.0,0.0,65,0.00,,,0.00,open2300-1.11,2013-02-01 21:02:00,
2013-02-01 23:07:00,49.6,38.3,28.67,SW,225,0.0,0.0,65,0.00,,,0.00,open2300-1.11,2013-02-01 21:07:00,
2013-02-01 23:12:00,49.6,38.3,28.67,SW,225,0.0,0.0,65,0.00,,,0.00,open2300-1.11,2013-02-01 21:12:00,
2013-02-01 23:17:00,49.6,38.3,28.66,SW,225,0.0,0.0,65,0.00,,,0.00,open2300-1.11,2013-02-01 21:17:00,
2013-02-01 23:22:00,49.6,38.3,28.66,SW,225,0.0,0.0,65,0.00,,,0.00,open2300-1.11,2013-02-01 21:22:00,
2013-02-01 23:27:00,49.6,38.3,28.65,SW,225,0.0,0.0,65,0.00,,,0.00,open2300-1.11,2013-02-01 21:27:00,
2013-02-01 23:33:00,49.6,38.3,28.65,SW,225,0.0,0.0,65,0.00,,,0.00,open2300-1.11,2013-02-01 21:33:00,
2013-02-01 23:42:00,49.8,38.5,28.65,SW,225,0.0,0.0,65,0.00,,,0.00,open2300-1.11,2013-02-01 21:42:00,
2013-02-01 23:52:00,49.8,38.5,28.66,SW,225,0.0,0.0,65,0.00,,,0.00,open2300-1.11,2013-02-01 21:52:00,
2013-02-01 23:57:00,49.8,38.9,28.66,SW,225,0.0,2.5,66,0.00,,,0.00,open2300-1.11,2013-02-01 21:57:00,